Flight Track Log - Related Links

Times and Time Zones

All times are in EDT time to prevent confusion due to time zone crossing. See the ASQ5745 flight status page for this flight to view local times or setup timezone preferences in your user account.


Time Position Orientation Groundspeed Altitude Reporting Facility
EDT Latitude Longitude Course Direction KTS MPH feet Rate Location/Type
Wed 08:35:34 AM 38.9667 -77.5333 329° Northwest 190 219 2,600  Level Potomac TRACON
Wed 08:37:20 AM 39.0508 -77.5989 329° Northwest 258 297 6,000 2,048 Climbing Washington Center
Wed 08:38:21 AM 39.1283 -77.5797 11° North 265 305 8,300 2,168 Climbing Washington Center
Wed 08:39:19 AM 39.2100 -77.5606 10° North 288 331 10,300 1,475 Climbing Washington Center
Wed 08:40:19 AM 39.3061 -77.5389 10° North 303 349 11,200 1,339 Climbing Washington Center
Wed 08:41:20 AM 39.4044 -77.5147 11° North 337 388 13,000 1,737 Climbing Washington Center
Wed 08:43:29 AM 39.6067 -77.4622 11° North 334 384 16,700 1,604 Climbing New York Center
Wed 08:44:27 AM 39.7114 -77.4208 17° North 354 407 18,000 1,017 Climbing New York Center
Wed 08:45:27 AM 39.7994 -77.3750 22° Northeast 361 415 18,700 800 Climbing New York Center
Wed 08:46:27 AM 39.9061 -77.3283 19° North 361 415 19,600 595 Climbing New York Center
Wed 08:47:28 AM 39.9922 -77.2442 37° Northeast 366 421 19,900 397 Climbing New York Center
Wed 08:48:28 AM 40.0725 -77.1486 42° Northeast 377 434 20,400 446 Climbing New York Center
Wed 08:49:29 AM 40.1572 -77.0856 30° Northeast 382 440 20,800 397 Climbing New York Center
Wed 08:50:29 AM 40.2642 -77.0356 20° North 389 448 21,200 559 Climbing New York Center
Wed 08:51:27 AM 40.3750 -76.9856 19° North 403 464 21,900 600 Climbing New York Center
Wed 08:52:29 AM 40.4861 -76.9328 20° North 415 478 22,400 541 Climbing New York Center
Wed 08:53:29 AM 40.5972 -76.8828 19° North 415 478 23,000 508 Climbing New York Center
Wed 08:54:27 AM 40.7103 -76.8325 19° North 415 478 23,400 454 Climbing New York Center
Wed 08:55:28 AM 40.8236 -76.7767 20° North 420 483 23,900 500 Climbing New York Center
Wed 08:56:27 AM 40.9367 -76.7236 20° North 420 483 24,400 403 Climbing New York Center
Wed 08:57:27 AM 41.0497 -76.6728 19° North 420 483 24,700 298 Climbing New York Center
Wed 08:58:28 AM 41.1628 -76.6194 20° North 420 483 25,000 149 Climbing New York Center
Wed 08:59:28 AM 41.2822 -76.5633 19° North 433 498 25,000  Level New York Center
Wed 09:00:28 AM 41.4017 -76.5072 19° North 441 507 25,000 -50 Level New York Center
Wed 09:01:29 AM 41.5317 -76.4436 20° North 452 520 24,900 -350 Descending New York Center
Wed 09:02:28 AM 41.6511 -76.3869 20° North 452 520 24,300 -450 Descending New York Center
Wed 09:03:29 AM 41.7725 -76.3278 20° North 457 526 24,000 -93 Descending New York Center
Wed 09:05:41 AM 42.0275 -76.1997 20° North 469 540 24,000  Level Boston Center
Wed 09:06:41 AM 42.1422 -76.1364 22° Northeast 459 528 24,000  Level Boston Center
Wed 09:07:41 AM 42.2069 -75.9972 58° Northeast 416 479 24,000  Level Boston Center
Wed 09:08:41 AM 42.2617 -75.8433 64° Northeast 426 490 24,000 -550 Level Boston Center
Wed 09:09:41 AM 42.3142 -75.6889 65° Northeast 434 499 22,900 -1,227 Descending Boston Center
Wed 09:10:53 AM 42.3708 -75.5258 65° Northeast 454 522 21,300 -1,591 Descending Boston Center
Wed 09:11:53 AM 42.4367 -75.3294 66° East 468 539 19,400 -1,850 Descending Boston Center
Wed 09:12:53 AM 42.4800 -75.1708 70° East 468 539 17,600 -1,750 Descending Boston Center
Wed 09:13:53 AM 42.5131 -75.0117 74° East 451 519 15,900 -1,700 Descending Boston Center
Wed 09:14:53 AM 42.5269 -74.8575 83° East 430 495 14,200 -1,714 Descending Boston Center
Wed 09:15:38 AM 42.5381 -74.7225 84° East 403 464 12,900 -1,714 Descending Boston Center
Wed 09:16:38 AM 42.5472 -74.5736 85° East 398 458 11,200 -992 Descending Boston Center
Wed 09:17:45 AM 42.5808 -74.4450 70° East 333 383 10,800 -1,181 Descending Boston Center
Wed 09:18:45 AM 42.6406 -74.3567 47° Northeast 296 341 8,700 -2,083 Descending Boston Center
Wed 09:19:46 AM 42.6983 -74.2736 47° Northeast 305 351 6,600 -1,828 Descending Boston Center
Wed 09:20:53 AM 42.7581 -74.1878 47° Northeast 298 343 4,800 -1,759 Descending Boston Center
Wed 09:21:42 AM 42.8089 -74.1211 44° Northeast 288 331 3,200 -991 Descending Boston Center
Wed 09:22:42 AM 42.8664 -74.0433 45° Northeast 288 331 3,000 -99 Descending Boston Center
Wed 09:23:43 AM 42.9031 -73.9536 61° Northeast 273 314 3,000 -347 Level Boston Center
Wed 09:24:43 AM 42.9231 -73.8633 73° East 212 244 2,300 -700 Descending Boston Center

Login

Don't have an account? Register now (free) for customized features, flight alerts, and more!